COSMOS 2216

Satellite information

Favourite Embed

Satellite Type and Status

PAYLOADIN ORBIT

Key statistics

Satellite COSMOS 2216 at a glance.

Uptime

11949

Days in orbit

Revolutions

≈ 12.6

Per day

Orbit

LEO

Low Earth Orbit

Inclination

82.6

Latest

Satellite identification and parameters

Extended collection of information and parameters for COSMOS 2216.

Object identification

Identified? True

Debris? False

Object name: COSMOS 2216

International designator: 1992-068F

Object number (NORAD): 22187

Object ID (CCSDS): 22187

Country: COMMONWEALTH OF INDEPENDENT STATES (CIS)

Current information (Y/N): Y

RCS size: MEDIUM

Orbital parameters

Period: 114.053 minutes

Inclination: 82.594 deg

SMA: 7790.473 km

Apoapsis: 1416.318 km

Periapsis: 1408.358 km

RAAN: 203.3166 deg

Eccentricy: 0.0005109

Argument of periapsis: 183.6877 deg

Mean anomaly: 176.4178 deg

Mean motion: 12.62574547 rev/day

Mean motion (dot): 0.00000041 rev/day2

B* drag term: 0.00016923 1/REarth

Two-line elements (TLE)

Creation date: July 7, 2025, 6:34 p.m.

Reference frame: TEME

Reference center: EARTH

Epoch: July 7, 2025, 1:26 p.m. UTC

TLE line 0: 0 COSMOS 2216

TLE line 1: 1 22187U 92068F 25188.55986369 .00000041 00000-0 16923-3 0 9999

TLE line 2: 2 22187 82.5940 203.3166 0005109 183.6877 176.4178 12.62574547507409

Live tracking on map

Real-time ground track for satellite COSMOS 2216.

In-orbit conjunctions

A list of the most updated potential collisions computed for object COSMOS 2216.

Target Orbit TCA Probability of collision Miss distance Type
COSMOS 2248 LEO 2025-04-11 15:35:39 0.02820735 75.0 (m) PAYLOAD

Associated space launch

Second generation store-dump military communications satellite

COSMOS 2216 was lifted into orbit during the mission ‘Tsiklon-3 | Strela-3 83 to 88’, on board a Tsiklon-3 space rocket.

The launch took place on Oct. 20, 1992, 12:58 p.m. from 32/1.

For more information about the launch, click the button.

Launch to space Tsiklon-3 | Strela-3 83 to 88
Tsiklon-3 | Strela-3 83 to 88

Agency: N/A

Status: Launch Successful

Launch date: Oct. 20, 1992, 12:58 p.m. UTC

Rocket: Tsiklon-3

Launch pad: 32/1

Location: Plesetsk Cosmodrome, Russian Federation

...

Latest news about this satellite

There are no fresh news available about this satellite. Check back as we update our databases every day.


Newsletter sign-up

Weekly statistics, charts and insights to help you stay on top of the space industry.